Location: Oshawa
(43.9000°N, 78.8670°W)
Time: 01:30:24
(UTC-05:00)

N. Korean satellite - Visible Passes

Search period start: 24 February 2018 00:00
Search period end: 06 March 2018 00:00
Orbit: 459 x 514 km, 97.2° (Epoch: 23 February)

Date Brightness Start Highest point End Pass type
(mag) Time Alt. Az. Time Alt. Az. Time Alt. Az.
24 Feb 10.1 19:12:32 10° WSW 19:14:17 13° W 19:16:03 10° WNW visible
25 Feb 9.2 18:47:25 10° SSW 18:50:21 25° W 18:53:20 10° NW visible
26 Feb 9.7 06:12:49 10° NE 06:15:48 22° E 06:18:47 10° SSE visible
26 Feb 7.6 18:23:07 10° S 18:26:29 51° W 18:29:57 10° NNW visible
27 Feb 10.5 05:50:19 10° ENE 05:51:51 12° E 05:53:24 10° ESE visible
28 Feb 10.1 19:10:48 10° SW 19:12:43 14° W 19:14:38 10° WNW visible
01 Mar 9.1 18:45:47 10° SSW 18:48:46 26° W 18:51:49 10° NW visible
02 Mar 9.7 06:11:17 10° NE 06:14:15 22° E 06:17:12 10° SSE visible
03 Mar 10.5 05:48:51 10° ENE 05:50:18 12° E 05:51:45 10° ESE visible
04 Mar 10.0 19:09:03 10° SW 19:11:06 15° W 19:13:10 10° NW visible
05 Mar 9.1 18:44:05 10° SSW 18:47:09 28° W 18:50:17 10° NW visible
